Regional Weather Roundup
Issued by NWS

Home | Current Version | Previous Version | Graphics & Text | Print | Product List | Glossary On
Versions: 1 2 3 4 5 6 7 8 9 10 11 12 13 14 15 16 17 18 19 20 21 22 23 24 25 26 27 28 29 30 31 32 33 34 35 36 37 38 39 40 41 42 43 44 45 46 47 48 49 50
000
ASUS43 KBIS 221710
RWRND

NORTH DAKOTA REGIONAL WEATHER ROUNDUP
NATIONAL WEATHER SERVICE BISMARCK ND
1200 PM CDT SAT JUL 22 2017

NOTE: "FAIR" INDICATES FEW OR NO CLOUDS BELOW 12,000 FEET WITH NO
SIGNIFICANT WEATHER AND/OR OBSTRUCTIONS TO VISIBILITY.


NDZ001>003-009>011-017-221800-
NORTHWEST NORTH DAKOTA

CITY           SKY/WX    TMP DP  RH WIND       PRES   REMARKS
WILLISTON      SUNNY     76  50  40 W22G29    30.00F
MINOT          SUNNY     79  54  41 NW14      29.93S
MINOT AFB      SUNNY     76  51  40 NW20      29.92S
$$

NDZ018>021-031>035-040>046-221800-
SOUTHWEST NORTH DAKOTA

CITY           SKY/WX    TMP DP  RH WIND       PRES   REMARKS
BISMARCK       SUNNY     85  50  29 W12       29.95F
DICKINSON      SUNNY     82  43  25 W22G32    30.01S
GARRISON         N/A     79  50  36 W12G25    29.95S
HETTINGER ARPT SUNNY     83  44  25 W15G22    30.06S
$$

NDZ004>008-012>016-024-026-027-054-221800-
NORTHEAST NORTH DAKOTA

CITY           SKY/WX    TMP DP  RH WIND       PRES   REMARKS
GRAND FORKS    MOSUNNY   80  59  48 W20       29.84R
GRND FRKS AFB  SUNNY     77  55  45 W18G25    29.86R
DEVILS LAKE    SUNNY     73  56  54 W21G26    29.91R
$$

NDZ022-023-025-028>030-036>039-047>053-221800-
SOUTHEAST NORTH DAKOTA

CITY           SKY/WX    TMP DP  RH WIND       PRES   REMARKS
FARGO          SUNNY     82  65  56 W17G24    29.85S
JAMESTOWN      SUNNY     81  55  40 NW15      29.92R
$$





USA.gov is the U.S. government's official web portal to all federal, state and local government web resources and services.